Location: Leverkusen
(51.0459°N, 7.0192°E)
Time: 22:10:39
(UTC+01:00)

ISS - Pass Details

Date: 29 January 2019
Orbit: 403 x 411 km, 51.6° (Epoch: 23 February)

Event Time Altitude Azimuth Distance (km) Brightness Sun altitude
Rises 18:12:43 0° 244° (WSW) 2,328 2.2 -8.9°
Reaches altitude 10° 18:14:48 10° 241° (WSW) 1,471 0.5 -9.2°
Maximum altitude 18:18:03 62° 160° (SSE) 466 -3.6 -9.7°
Enters shadow 18:20:40 15° 81° (E) 1,209 -2.1 -10.1°
